TimeEDT,TemperatureF,Dew PointF,Humidity,Sea Level PressureIn,VisibilityMPH,Wind Direction,Wind SpeedMPH,Gust SpeedMPH,PrecipitationIn,Events,Conditions,WindDirDegrees,DateUTC
12:53 AM,35.1,34.0,96,30.14,10.0,Calm,Calm,-,N/A,,Clear,0,2012-10-08 04:53:00
1:53 AM,35.1,33.1,92,30.16,10.0,Calm,Calm,-,N/A,,Clear,0,2012-10-08 05:53:00
2:53 AM,35.1,33.1,92,30.16,10.0,WSW,5.8,-,N/A,,Clear,240,2012-10-08 06:53:00
3:53 AM,34.0,32.0,92,30.17,10.0,Calm,Calm,-,N/A,,Clear,0,2012-10-08 07:53:00
4:53 AM,32.0,30.0,92,30.19,10.0,Calm,Calm,-,N/A,,Clear,0,2012-10-08 08:53:00
5:53 AM,32.0,28.9,88,30.22,9.0,Calm,Calm,-,N/A,,Clear,0,2012-10-08 09:53:00
6:50 AM,30.2,28.4,93,30.21,10.0,Calm,Calm,-,N/A,,Scattered Clouds,0,2012-10-08 10:50:00
6:53 AM,30.9,28.0,89,30.24,10.0,Calm,Calm,-,N/A,,Scattered Clouds,0,2012-10-08 10:53:00
7:53 AM,30.9,28.9,92,30.25,1.0,SSE,3.5,-,N/A,,Scattered Clouds,150,2012-10-08 11:53:00
8:07 AM,32.0,30.2,93,30.23,1.0,Calm,Calm,-,N/A,,Mostly Cloudy,0,2012-10-08 12:07:00
8:19 AM,33.8,32.0,93,30.24,3.0,Calm,Calm,-,N/A,,Scattered Clouds,0,2012-10-08 12:19:00
8:53 AM,35.1,32.0,89,30.27,3.0,Calm,Calm,-,N/A,,Scattered Clouds,0,2012-10-08 12:53:00
9:53 AM,39.0,36.0,89,30.27,10.0,Calm,Calm,-,N/A,,Partly Cloudy,0,2012-10-08 13:53:00
10:53 AM,45.0,37.9,76,30.27,10.0,Calm,Calm,-,N/A,,Clear,0,2012-10-08 14:53:00
11:53 AM,48.9,39.9,71,30.25,10.0,Calm,Calm,-,N/A,,Clear,0,2012-10-08 15:53:00
12:53 PM,51.1,37.9,61,30.25,10.0,South,4.6,-,N/A,,Clear,190,2012-10-08 16:53:00
1:53 PM,53.1,34.0,48,30.23,10.0,West,8.1,-,N/A,,Partly Cloudy,260,2012-10-08 17:53:00
2:53 PM,53.1,33.1,47,30.23,10.0,West,3.5,-,N/A,,Partly Cloudy,280,2012-10-08 18:53:00
3:53 PM,52.0,37.0,57,30.22,10.0,SSE,4.6,-,N/A,,Overcast,150,2012-10-08 19:53:00
4:53 PM,52.0,35.1,53,30.23,10.0,South,3.5,-,N/A,,Partly Cloudy,190,2012-10-08 20:53:00
5:53 PM,51.1,36.0,56,30.24,10.0,SSW,4.6,-,N/A,,Partly Cloudy,200,2012-10-08 21:53:00
6:53 PM,48.9,35.1,59,30.24,10.0,SSW,3.5,-,N/A,,Clear,200,2012-10-08 22:53:00
8:53 PM,39.9,36.0,86,30.25,10.0,Calm,Calm,-,N/A,,Clear,0,2012-10-09 00:53:00
10:53 PM,36.0,32.0,86,30.27,10.0,Calm,Calm,-,N/A,,Clear,0,2012-10-09 02:53:00
11:53 PM,36.0,33.1,89,30.25,10.0,Calm,Calm,-,N/A,,Clear,0,2012-10-09 03:53:00